| time (UTC) | temp F | wind direction | speed MPH | gust MPH | rain 1hr in | rain 24hr in | rain mn in | humidity % | barometer mb |
| 20260905203610 | 66 | 0 | 2.0 | 4.0 | 0.00 | 0.07 | 0.07 | 66 | 1021.4 |
| 20260905203110 | 66 | 3 | 4.0 | 4.0 | 0.00 | 0.07 | 0.07 | 66 | 1021.5 |
| 20260905202609 | 66 | 323 | 1.0 | 5.0 | 0.00 | 0.07 | 0.07 | 65 | 1021.5 |
| 20260905201622 | 67 | 225 | 2.0 | 6.0 | 0.00 | 0.07 | 0.07 | 64 | 1021.3 |
| 20260905201110 | 67 | 236 | 2.0 | 6.0 | 0.00 | 0.07 | 0.07 | 63 | 1021.4 |
| 20260905200610 | 67 | 236 | 2.0 | 6.0 | 0.00 | 0.07 | 0.07 | 63 | 1021.5 |
| 20260905200115 | 67 | 277 | 3.0 | 6.0 | 0.00 | 0.07 | 0.07 | 62 | 1021.3 |
| 20260905195610 | 67 | 267 | 1.0 | 5.0 | 0.00 | 0.07 | 0.07 | 61 | 1021.4 |
| 20260905195110 | 67 | 235 | 4.0 | 5.0 | 0.00 | 0.07 | 0.07 | 60 | 1021.1 |
| 20260905194610 | 67 | 238 | 0.0 | 5.0 | 0.00 | 0.07 | 0.07 | 59 | 1021.2 |
| 20260905194110 | 67 | 214 | 0.0 | 5.0 | 0.00 | 0.07 | 0.07 | 58 | 1020.9 |
| 20260905193609 | 67 | 241 | 3.0 | 5.0 | 0.00 | 0.07 | 0.07 | 58 | 1021.0 |
| 20260905193110 | 67 | 253 | 1.0 | 4.0 | 0.00 | 0.07 | 0.07 | 57 | 1021.0 |
| 20260905192610 | 67 | 233 | 3.0 | 4.0 | 0.00 | 0.07 | 0.07 | 56 | 1021.0 |
| 20260905192112 | 67 | 225 | 1.0 | 3.0 | 0.00 | 0.07 | 0.07 | 56 | 1021.0 |
| 20260905191610 | 68 | 1 | 1.0 | 3.0 | 0.00 | 0.07 | 0.07 | 56 | 1020.9 |
| 20260905191110 | 68 | 242 | 0.0 | 3.0 | 0.00 | 0.07 | 0.07 | 55 | 1021.0 |
| 20260905190610 | 68 | 11 | 2.0 | 6.0 | 0.00 | 0.07 | 0.07 | 55 | 1020.8 |
| 20260905190110 | 68 | 187 | 1.0 | 6.0 | 0.00 | 0.07 | 0.07 | 54 | 1020.8 |
| 20260905185609 | 69 | 317 | 1.0 | 3.0 | 0.00 | 0.07 | 0.07 | 54 | 1020.6 |
| 20260905185110 | 69 | 284 | 3.0 | 4.0 | 0.00 | 0.07 | 0.07 | 53 | 1020.7 |
| 20260905184627 | 69 | 240 | 2.0 | 6.0 | 0.00 | 0.07 | 0.07 | 53 | 1020.8 |
| 20260905183611 | 69 | 212 | 2.0 | 4.0 | 0.00 | 0.07 | 0.07 | 52 | 1020.5 |
| 20260905183111 | 69 | 262 | 2.0 | 4.0 | 0.00 | 0.07 | 0.07 | 52 | 1020.4 |
| 20260905182610 | 69 | 24 | 1.0 | 4.0 | 0.00 | 0.07 | 0.07 | 52 | 1020.4 |
| 20260905181610 | 70 | 187 | 0.0 | 5.0 | 0.00 | 0.07 | 0.07 | 52 | 1020.1 |
| 20260905181110 | 70 | 247 | 1.0 | 5.0 | 0.00 | 0.07 | 0.07 | 52 | 1020.1 |
| 20260905180610 | 70 | 266 | 4.0 | 5.0 | 0.00 | 0.07 | 0.07 | 51 | 1020.3 |
| 20260905180110 | 70 | 235 | 1.0 | 4.0 | 0.00 | 0.07 | 0.07 | 51 | 1020.0 |
| 20260905175612 | 70 | 240 | 2.0 | 4.0 | 0.00 | 0.07 | 0.07 | 50 | 1019.9 |
| 20260905175110 | 71 | 314 | 2.0 | 4.0 | 0.00 | 0.07 | 0.07 | 50 | 1019.8 |
| 20260905174610 | 71 | 285 | 3.0 | 4.0 | 0.00 | 0.07 | 0.07 | 49 | 1019.7 |
| 20260905174110 | 71 | 257 | 2.0 | 7.0 | 0.00 | 0.07 | 0.07 | 49 | 1019.7 |
| 20260905173609 | 72 | 21 | 2.0 | 7.0 | 0.00 | 0.07 | 0.07 | 48 | 1019.6 |
| 20260905173110 | 72 | 301 | 3.0 | 7.0 | 0.00 | 0.07 | 0.07 | 48 | 1019.6 |
| 20260905172610 | 72 | 264 | 3.0 | 6.0 | 0.00 | 0.07 | 0.07 | 48 | 1019.7 |
| 20260905172123 | 72 | 308 | 3.0 | 6.0 | 0.00 | 0.07 | 0.07 | 48 | 1019.6 |
| 20260905171610 | 72 | 262 | 3.0 | 5.0 | 0.00 | 0.07 | 0.07 | 47 | 1019.6 |
| 20260905171110 | 72 | 256 | 3.0 | 4.0 | 0.00 | 0.07 | 0.07 | 47 | 1019.3 |
| 20260905170610 | 73 | 323 | 1.0 | 4.0 | 0.00 | 0.07 | 0.07 | 47 | 1019.4 |
| 20260905170116 | 73 | 263 | 2.0 | 4.0 | 0.00 | 0.07 | 0.07 | 47 | 1019.5 |
| 20260905165622 | 73 | 317 | 1.0 | 6.0 | 0.00 | 0.07 | 0.07 | 46 | 1019.7 |
| 20260905165109 | 74 | 351 | 1.0 | 9.0 | 0.00 | 0.07 | 0.07 | 46 | 1019.4 |
| 20260905164612 | 74 | 288 | 2.0 | 9.0 | 0.00 | 0.07 | 0.07 | 45 | 1019.5 |
| 20260905164110 | 75 | 260 | 4.0 | 11.0 | 0.00 | 0.07 | 0.07 | 44 | 1019.4 |
| 20260905163610 | 75 | 262 | 2.0 | 11.0 | 0.00 | 0.07 | 0.07 | 43 | 1019.4 |
| 20260905162610 | 76 | 23 | 3.0 | 9.0 | 0.00 | 0.07 | 0.07 | 42 | 1019.3 |
| 20260905162109 | 76 | 227 | 5.0 | 12.0 | 0.00 | 0.07 | 0.07 | 42 | 1019.4 |
| 20260905161610 | 76 | 329 | 5.0 | 12.0 | 0.00 | 0.07 | 0.07 | 42 | 1019.3 |
| 20260905161110 | 76 | 271 | 2.0 | 12.0 | 0.00 | 0.07 | 0.07 | 41 | 1019.0 |
| 20260905160610 | 76 | 242 | 5.0 | 12.0 | 0.00 | 0.07 | 0.07 | 42 | 1019.1 |
| 20260905155609 | 77 | 306 | 2.0 | 9.0 | 0.00 | 0.07 | 0.07 | 42 | 1019.2 |
| 20260905155111 | 77 | 226 | 3.0 | 9.0 | 0.00 | 0.07 | 0.07 | 43 | 1019.3 |
| 20260905154610 | 77 | 10 | 2.0 | 13.0 | 0.00 | 0.07 | 0.07 | 42 | 1018.9 |
| 20260905154110 | 77 | 343 | 2.0 | 13.0 | 0.00 | 0.07 | 0.07 | 43 | 1019.1 |
| 20260905153611 | 77 | 218 | 4.0 | 15.0 | 0.00 | 0.07 | 0.07 | 42 | 1019.2 |
| 20260905153110 | 77 | 216 | 0.0 | 15.0 | 0.00 | 0.07 | 0.07 | 43 | 1018.9 |
| 20260905152610 | 77 | 299 | 4.0 | 11.0 | 0.00 | 0.07 | 0.07 | 42 | 1018.9 |
| 20260905152110 | 77 | 348 | 2.0 | 11.0 | 0.00 | 0.07 | 0.07 | 42 | 1019.1 |
| 20260905151610 | 78 | 39 | 3.0 | 9.0 | 0.00 | 0.07 | 0.07 | 41 | 1018.9 |
| 20260905151111 | 78 | 236 | 3.0 | 9.0 | 0.00 | 0.07 | 0.07 | 41 | 1019.1 |
| 20260905150610 | 78 | 331 | 2.0 | 14.0 | 0.00 | 0.07 | 0.07 | 42 | 1019.1 |
| 20260905150111 | 77 | 344 | 4.0 | 14.0 | 0.00 | 0.07 | 0.07 | 43 | 1019.0 |
| 20260905145610 | 78 | 221 | 5.0 | 8.0 | 0.00 | 0.07 | 0.07 | 42 | 1018.9 |
| 20260905145110 | 78 | 260 | 4.0 | 10.0 | 0.00 | 0.07 | 0.07 | 42 | 1018.9 |
| 20260905144610 | 77 | 296 | 6.0 | 10.0 | 0.00 | 0.07 | 0.07 | 43 | 1018.9 |
| 20260905143610 | 77 | 267 | 6.0 | 11.0 | 0.00 | 0.07 | 0.07 | 42 | 1018.8 |
| 20260905143112 | 77 | 280 | 4.0 | 13.0 | 0.00 | 0.07 | 0.07 | 42 | 1018.7 |
| 20260905142610 | 77 | 274 | 7.0 | 13.0 | 0.00 | 0.07 | 0.07 | 43 | 1019.1 |
| 20260905142110 | 78 | 340 | 5.0 | 13.0 | 0.00 | 0.07 | 0.07 | 43 | 1018.8 |
| 20260905141610 | 77 | 229 | 3.0 | 13.0 | 0.00 | 0.07 | 0.07 | 43 | 1018.7 |
| 20260905141122 | 78 | 328 | 4.0 | 11.0 | 0.00 | 0.07 | 0.07 | 42 | 1018.8 |
| 20260905140118 | 78 | 277 | 4.0 | 12.0 | 0.00 | 0.07 | 0.07 | 41 | 1018.8 |
| 20260905135610 | 78 | 250 | 6.0 | 17.0 | 0.00 | 0.07 | 0.07 | 42 | 1019.0 |
| 20260905135110 | 78 | 320 | 4.0 | 17.0 | 0.00 | 0.07 | 0.07 | 43 | 1018.8 |
| 20260905134610 | 78 | 237 | 6.0 | 15.0 | 0.00 | 0.07 | 0.07 | 42 | 1018.9 |
| 20260905134110 | 78 | 316 | 8.0 | 15.0 | 0.00 | 0.07 | 0.07 | 43 | 1019.1 |
| 20260905133611 | 78 | 243 | 6.0 | 13.0 | 0.00 | 0.07 | 0.07 | 43 | 1019.0 |
| 20260905132611 | 78 | 337 | 6.0 | 12.0 | 0.00 | 0.07 | 0.07 | 43 | 1019.3 |
| 20260905132110 | 79 | 315 | 2.0 | 12.0 | 0.00 | 0.07 | 0.07 | 43 | 1019.4 |
| 20260905131610 | 79 | 211 | 3.0 | 10.0 | 0.00 | 0.07 | 0.07 | 42 | 1019.1 |
| 20260905131110 | 78 | 269 | 3.0 | 9.0 | 0.00 | 0.07 | 0.07 | 44 | 1019.1 |
| 20260905130116 | 78 | 266 | 3.0 | 9.0 | 0.00 | 0.07 | 0.07 | 42 | 1019.3 |
| 20260905125611 | 78 | 307 | 4.0 | 10.0 | 0.00 | 0.07 | 0.07 | 45 | 1019.3 |
| 20260905125110 | 78 | 287 | 1.0 | 10.0 | 0.00 | 0.07 | 0.07 | 45 | 1019.5 |
| 20260905124111 | 78 | 280 | 4.0 | 11.0 | 0.00 | 0.07 | 0.07 | 44 | 1019.5 |
| 20260905123610 | 78 | 280 | 3.0 | 11.0 | 0.00 | 0.07 | 0.07 | 44 | 1019.5 |
| 20260905123110 | 78 | 262 | 2.0 | 12.0 | 0.00 | 0.07 | 0.07 | 44 | 1019.0 |
| 20260905122111 | 78 | 293 | 5.0 | 11.0 | 0.00 | 0.07 | 0.07 | 44 | 1019.4 |
| 20260905121610 | 79 | 337 | 9.0 | 11.0 | 0.00 | 0.07 | 0.07 | 42 | 1019.3 |
| 20260905120611 | 78 | 269 | 6.0 | 12.0 | 0.00 | 0.07 | 0.07 | 44 | 1019.4 |
| 20260905120115 | 79 | 299 | 5.0 | 12.0 | 0.00 | 0.07 | 0.07 | 45 | 1019.2 |
| 20260905115610 | 78 | 359 | 3.0 | 11.0 | 0.00 | 0.07 | 0.07 | 46 | 1019.3 |
| 20260905115110 | 78 | 3 | 8.0 | 13.0 | 0.00 | 0.07 | 0.07 | 47 | 1019.4 |
| 20260905114612 | 77 | 241 | 3.0 | 13.0 | 0.00 | 0.07 | 0.07 | 47 | 1019.4 |
| 20260905114111 | 78 | 287 | 6.0 | 12.0 | 0.00 | 0.07 | 0.07 | 46 | 1019.3 |
| 20260905113610 | 77 | 260 | 0.0 | 13.0 | 0.00 | 0.07 | 0.07 | 49 | 1019.5 |
| 20260905113110 | 76 | 288 | 5.0 | 13.0 | 0.00 | 0.07 | 0.07 | 50 | 1019.3 |
| 20260905112610 | 77 | 316 | 7.0 | 10.0 | 0.00 | 0.07 | 0.07 | 49 | 1019.4 |
| 20260905111609 | 75 | 293 | 4.0 | 8.0 | 0.00 | 0.07 | 0.07 | 53 | 1019.6 |
| 20260905111110 | 76 | 7 | 6.0 | 7.0 | 0.00 | 0.07 | 0.07 | 56 | 1019.6 |
| 20260905110610 | 75 | 229 | 0.0 | 7.0 | 0.00 | 0.07 | 0.07 | 58 | 1019.6 |
| 20260905110118 | 76 | 37 | 2.0 | 7.0 | 0.00 | 0.07 | 0.07 | 57 | 1019.5 |
| 20260905105610 | 76 | 262 | 3.0 | 9.0 | 0.00 | 0.07 | 0.07 | 59 | 1019.5 |
| 20260905104622 | 74 | 205 | 3.0 | 9.0 | 0.00 | 0.07 | 0.07 | 66 | 1019.7 |
| 20260905104112 | 74 | 291 | 2.0 | 9.0 | 0.00 | 0.07 | 0.07 | 66 | 1019.7 |
| 20260905103110 | 72 | 67 | 2.0 | 12.0 | 0.00 | 0.07 | 0.07 | 72 | 1019.6 |
| 20260905102110 | 73 | 244 | 6.0 | 10.0 | 0.00 | 0.07 | 0.07 | 68 | 1019.8 |
| 20260905101611 | 73 | 207 | 4.0 | 12.0 | 0.00 | 0.07 | 0.07 | 69 | 1020.1 |
| 20260905101110 | 72 | 194 | 3.0 | 12.0 | 0.00 | 0.07 | 0.07 | 71 | 1019.7 |
| 20260905100610 | 71 | 188 | 3.0 | 11.0 | 0.00 | 0.07 | 0.07 | 72 | 1019.9 |
| 20260905100112 | 70 | 321 | 4.0 | 14.0 | 0.00 | 0.07 | 0.07 | 74 | 1019.8 |
| 20260905095610 | 69 | 254 | 8.0 | 14.0 | 0.00 | 0.07 | 0.07 | 75 | 1020.0 |
| 20260905094610 | 68 | 253 | 2.0 | 13.0 | 0.00 | 0.07 | 0.07 | 77 | 1020.1 |
| 20260905094111 | 67 | 222 | 3.0 | 15.0 | 0.00 | 0.07 | 0.07 | 80 | 1020.1 |
| 20260905093111 | 66 | 19 | 1.0 | 10.0 | 0.00 | 0.07 | 0.07 | 82 | 1020.0 |
| 20260905092610 | 65 | 232 | 2.0 | 10.0 | 0.00 | 0.07 | 0.07 | 83 | 1020.1 |
| 20260905092110 | 64 | 231 | 3.0 | 14.0 | 0.00 | 0.07 | 0.07 | 84 | 1020.2 |
| 20260905091110 | 63 | 224 | 2.0 | 13.0 | 0.01 | 0.07 | 0.07 | 87 | 1020.2 |
| 20260905090610 | 63 | 223 | 6.0 | 11.0 | 0.01 | 0.07 | 0.07 | 87 | 1019.9 |
| 20260905090115 | 62 | 236 | 6.0 | 10.0 | 0.01 | 0.07 | 0.07 | 88 | 1020.2 |
| 20260905085110 | 61 | 230 | 8.0 | 12.0 | 0.01 | 0.07 | 0.07 | 89 | 1020.2 |
| 20260905084110 | 61 | 208 | 2.0 | 15.0 | 0.01 | 0.07 | 0.07 | 91 | 1019.9 |
| 20260905083611 | 60 | 242 | 11.0 | 15.0 | 0.01 | 0.07 | 0.07 | 91 | 1020.0 |
| 20260905082610 | 60 | 241 | 8.0 | 17.0 | 0.02 | 0.07 | 0.07 | 92 | 1020.1 |
| 20260905082123 | 60 | 204 | 4.0 | 13.0 | 0.02 | 0.07 | 0.07 | 91 | 1020.1 |
| 20260905081110 | 60 | 242 | 6.0 | 20.0 | 0.01 | 0.06 | 0.06 | 90 | 1019.9 |
| 20260905080611 | 60 | 236 | 5.0 | 20.0 | 0.01 | 0.06 | 0.06 | 90 | 1019.7 |
| 20260905075610 | 60 | 198 | 3.0 | 16.0 | 0.01 | 0.06 | 0.06 | 89 | 1019.7 |
| 20260905075111 | 60 | 248 | 9.0 | 15.0 | 0.01 | 0.06 | 0.06 | 89 | 1019.6 |
| 20260905074610 | 61 | 295 | 2.0 | 10.0 | 0.01 | 0.06 | 0.06 | 91 | 1019.6 |
| 20260905074110 | 60 | 241 | 6.0 | 8.0 | 0.01 | 0.06 | 0.06 | 90 | 1019.5 |
| 20260905073610 | 61 | 230 | 4.0 | 9.0 | 0.01 | 0.06 | 0.06 | 89 | 1019.7 |
| 20260905072611 | 61 | 232 | 2.0 | 6.0 | 0.01 | 0.05 | 0.05 | 84 | 1019.9 |
| 20260905071611 | 62 | 180 | 2.0 | 4.0 | 0.01 | 0.05 | 0.05 | 82 | 1020.0 |
| 20260905071110 | 62 | 222 | 1.0 | 3.0 | 0.01 | 0.05 | 0.05 | 83 | 1020.0 |
| 20260905070611 | 62 | 0 | 1.0 | 6.0 | 0.01 | 0.05 | 0.05 | 83 | 1019.8 |
| 20260905065110 | 61 | 110 | 2.0 | 7.0 | 0.01 | 0.05 | 0.05 | 83 | 1019.5 |
| 20260905064111 | 61 | 70 | 1.0 | 8.0 | 0.01 | 0.05 | 0.05 | 82 | 1019.2 |
| 20260905063610 | 62 | 8 | 4.0 | 8.0 | 0.01 | 0.05 | 0.05 | 82 | 1019.7 |
| 20260905063110 | 61 | 344 | 2.0 | 4.0 | 0.02 | 0.04 | 0.04 | 84 | 1019.8 |
| 20260905062610 | 61 | 213 | 2.0 | 4.0 | 0.03 | 0.04 | 0.04 | 86 | 1020.3 |
| 20260905062110 | 61 | 304 | 0.0 | 3.0 | 0.04 | 0.04 | 0.04 | 88 | 1019.5 |
| 20260905061611 | 61 | 24 | 2.0 | 3.0 | 0.04 | 0.04 | 0.04 | 87 | 1019.1 |
| 20260905061110 | 60 | 4 | 1.0 | 2.0 | 0.04 | 0.04 | 0.04 | 86 | 1019.2 |
| 20260905060610 | 61 | 269 | 0.0 | 2.0 | 0.04 | 0.04 | 0.04 | 86 | 1019.1 |
| 20260905060117 | 61 | 22 | 1.0 | 2.0 | 0.04 | 0.04 | 0.04 | 85 | 1019.0 |
| 20260905055610 | 61 | 79 | 2.0 | 4.0 | 0.04 | 0.04 | 0.04 | 83 | 1019.2 |
| 20260905055111 | 61 | 80 | 0.0 | 5.0 | 0.04 | 0.04 | 0.04 | 83 | 1019.2 |
| 20260905054610 | 61 | 33 | 0.0 | 6.0 | 0.04 | 0.04 | 0.04 | 82 | 1019.5 |
| 20260905054110 | 61 | 4 | 3.0 | 6.0 | 0.04 | 0.04 | 0.04 | 81 | 1019.0 |
| 20260905053611 | 62 | 29 | 3.0 | 6.0 | 0.04 | 0.04 | 0.04 | 79 | 1019.4 |
| 20260905053110 | 63 | 60 | 1.0 | 8.0 | 0.02 | 0.02 | 0.03 | 76 | 1019.4 |
| 20260905052610 | 64 | 1 | 3.0 | 8.0 | 0.01 | 0.01 | 0.01 | 71 | 1019.4 |
| 20260905052110 | 65 | 338 | 3.0 | 8.0 | 0.00 | 0.00 | 0.00 | 66 | 1019.3 |
| 20260905051610 | 66 | 23 | 3.0 | 6.0 | 0.00 | 0.00 | 0.00 | 60 | 1018.7 |
| 20260905051110 | 66 | 7 | 4.0 | 6.0 | 0.00 | 0.00 | 0.00 | 60 | 1018.4 |
| 20260905050610 | 66 | 4 | 2.0 | 9.0 | 0.00 | 0.00 | 0.00 | 60 | 1018.1 |
| 20260905050110 | 66 | 4 | 3.0 | 11.0 | 0.00 | 0.00 | 0.00 | 59 | 1017.7 |
| 20260905045111 | 67 | 351 | 6.0 | 13.0 | 0.00 | 0.00 | 0.00 | 56 | 1018.1 |
| 20260905044610 | 67 | 0 | 6.0 | 13.0 | 0.00 | 0.00 | 0.00 | 56 | 1017.9 |
| 20260905044111 | 67 | 0 | 3.0 | 7.0 | 0.00 | 0.00 | 0.00 | 55 | 1017.7 |
| 20260905043610 | 67 | 341 | 2.0 | 9.0 | 0.00 | 0.00 | 0.00 | 55 | 1017.7 |
| 20260905043110 | 67 | 15 | 2.0 | 11.0 | 0.00 | 0.00 | 0.00 | 55 | 1017.6 |
| 20260905042110 | 67 | 15 | 3.0 | 16.0 | 0.00 | 0.00 | 0.00 | 53 | 1017.4 |
| 20260905041610 | 68 | 359 | 4.0 | 16.0 | 0.00 | 0.00 | 0.00 | 53 | 1017.1 |
| 20260905041110 | 68 | 13 | 4.0 | 16.0 | 0.00 | 0.00 | 0.00 | 55 | 1017.2 |
| 20260905040611 | 67 | 12 | 7.0 | 9.0 | 0.00 | 0.00 | 0.00 | 57 | 1017.3 |
| 20260905040118 | 67 | 357 | 4.0 | 11.0 | 0.00 | 0.00 | 0.00 | 57 | 1016.9 |
| 20260905035610 | 67 | 3 | 1.0 | 11.0 | 0.00 | 0.00 | 0.00 | 59 | 1016.8 |
| 20260905035110 | 67 | 357 | 2.0 | 7.0 | 0.00 | 0.00 | 0.00 | 58 | 1016.7 |
| 20260905034611 | 67 | 321 | 3.0 | 7.0 | 0.00 | 0.00 | 0.00 | 59 | 1016.7 |
| 20260905034110 | 67 | 52 | 2.0 | 9.0 | 0.00 | 0.00 | 0.00 | 60 | 1016.5 |
| 20260905033110 | 68 | 10 | 3.0 | 11.0 | 0.00 | 0.00 | 0.00 | 60 | 1016.6 |
| 20260905032615 | 68 | 2 | 3.0 | 11.0 | 0.00 | 0.00 | 0.00 | 60 | 1016.6 |
| 20260905032110 | 68 | 331 | 6.0 | 10.0 | 0.00 | 0.00 | 0.00 | 60 | 1016.7 |
| 20260905031110 | 68 | 345 | 3.0 | 11.0 | 0.00 | 0.00 | 0.00 | 60 | 1016.0 |
| 20260905030123 | 69 | 335 | 4.0 | 11.0 | 0.00 | 0.00 | 0.00 | 59 | 1015.6 |
| 20260905025623 | 69 | 351 | 4.0 | 14.0 | 0.00 | 0.00 | 0.00 | 59 | 1015.4 |
| 20260905025111 | 69 | 8 | 7.0 | 14.0 | 0.00 | 0.00 | 0.00 | 58 | 1015.3 |
| 20260905024610 | 69 | 353 | 3.0 | 15.0 | 0.00 | 0.00 | 0.00 | 59 | 1015.3 |
| 20260905024110 | 69 | 354 | 7.0 | 15.0 | 0.00 | 0.00 | 0.00 | 59 | 1015.3 |
| 20260905023111 | 70 | 21 | 5.0 | 14.0 | 0.00 | 0.00 | 0.00 | 62 | 1015.1 |
| 20260905022610 | 71 | 358 | 8.0 | 18.0 | 0.00 | 0.00 | 0.00 | 62 | 1014.9 |
| 20260905022110 | 71 | 13 | 6.0 | 18.0 | 0.00 | 0.00 | 0.00 | 62 | 1014.6 |
| 20260905020610 | 74 | 357 | 8.0 | 24.0 | 0.00 | 0.00 | 0.00 | 59 | 1014.2 |
| 20260905015610 | 77 | 198 | 1.0 | 5.0 | 0.00 | 0.00 | 0.00 | 52 | 1013.0 |
| 20260905015111 | 77 | 341 | 2.0 | 6.0 | 0.00 | 0.00 | 0.00 | 54 | 1013.1 |
| 20260905014610 | 78 | 255 | 0.0 | 6.0 | 0.00 | 0.00 | 0.00 | 51 | 1012.9 |
| 20260905014109 | 78 | 245 | 2.0 | 5.0 | 0.00 | 0.00 | 0.00 | 50 | 1013.2 |
| 20260905013610 | 78 | 221 | 1.0 | 5.0 | 0.00 | 0.00 | 0.00 | 49 | 1013.0 |
| 20260905013111 | 78 | 321 | 2.0 | 4.0 | 0.00 | 0.00 | 0.00 | 49 | 1013.1 |
| 20260905012610 | 78 | 264 | 1.0 | 4.0 | 0.00 | 0.00 | 0.00 | 49 | 1012.7 |
| 20260905012110 | 78 | 285 | 2.0 | 4.0 | 0.00 | 0.00 | 0.00 | 49 | 1012.7 |
| 20260905011110 | 78 | 289 | 1.0 | 5.0 | 0.00 | 0.00 | 0.00 | 48 | 1012.8 |
| 20260905010116 | 78 | 236 | 2.0 | 5.0 | 0.00 | 0.00 | 0.00 | 48 | 1012.9 |
| 20260905005110 | 78 | 257 | 2.0 | 4.0 | 0.00 | 0.00 | 0.00 | 47 | 1012.4 |
| 20260905004610 | 79 | 227 | 1.0 | 4.0 | 0.00 | 0.00 | 0.00 | 47 | 1012.8 |
| 20260905003610 | 79 | 239 | 1.0 | 6.0 | 0.00 | 0.00 | 0.00 | 46 | 1012.7 |
| 20260905003110 | 79 | 225 | 1.0 | 6.0 | 0.00 | 0.00 | 0.00 | 46 | 1012.5 |
| 20260905002610 | 79 | 212 | 2.0 | 5.0 | 0.00 | 0.00 | 0.00 | 46 | 1012.5 |
| 20260905002110 | 79 | 241 | 3.0 | 5.0 | 0.00 | 0.00 | 0.00 | 46 | 1012.8 |
| 20260905001610 | 78 | 229 | 3.0 | 5.0 | 0.00 | 0.00 | 0.00 | 46 | 1012.8 |
| 20260905001110 | 78 | 273 | 1.0 | 4.0 | 0.00 | 0.00 | 0.00 | 47 | 1012.5 |
| 20260905000115 | 79 | 278 | 2.0 | 5.0 | 0.00 | 0.00 | 0.00 | 46 | 1012.6 |
| 20260904235110 | 79 | 279 | 2.0 | 7.0 | 0.00 | 0.00 | 0.00 | 46 | 1012.3 |
| 20260904234611 | 79 | 247 | 3.0 | 5.0 | 0.00 | 0.00 | 0.00 | 45 | 1012.5 |
| 20260904234110 | 79 | 258 | 2.0 | 5.0 | 0.00 | 0.00 | 0.00 | 45 | 1012.6 |
| 20260904233610 | 79 | 341 | 2.0 | 8.0 | 0.00 | 0.00 | 0.00 | 45 | 1012.4 |
| 20260904233109 | 79 | 346 | 3.0 | 8.0 | 0.00 | 0.00 | 0.00 | 45 | 1012.3 |
| 20260904232610 | 79 | 273 | 1.0 | 6.0 | 0.00 | 0.00 | 0.00 | 45 | 1012.4 |
| 20260904232110 | 79 | 216 | 2.0 | 6.0 | 0.00 | 0.00 | 0.00 | 45 | 1012.3 |
| 20260904231610 | 79 | 232 | 3.0 | 8.0 | 0.00 | 0.00 | 0.00 | 45 | 1012.2 |
| 20260904231110 | 79 | 236 | 2.0 | 8.0 | 0.00 | 0.00 | 0.00 | 45 | 1012.2 |
| 20260904230610 | 79 | 244 | 5.0 | 7.0 | 0.00 | 0.00 | 0.00 | 45 | 1012.1 |
| 20260904230115 | 79 | 239 | 4.0 | 8.0 | 0.00 | 0.00 | 0.00 | 45 | 1012.2 |
| 20260904225610 | 79 | 266 | 2.0 | 8.0 | 0.00 | 0.00 | 0.00 | 45 | 1012.0 |
| 20260904225110 | 78 | 283 | 1.0 | 10.0 | 0.00 | 0.00 | 0.00 | 46 | 1012.0 |
| 20260904224611 | 79 | 253 | 2.0 | 10.0 | 0.00 | 0.00 | 0.00 | 45 | 1012.0 |
| 20260904223610 | 78 | 241 | 3.0 | 9.0 | 0.00 | 0.00 | 0.00 | 46 | 1011.8 |
| 20260904223109 | 78 | 229 | 4.0 | 9.0 | 0.00 | 0.00 | 0.00 | 46 | 1011.9 |
| 20260904221110 | 77 | 205 | 4.0 | 7.0 | 0.00 | 0.00 | 0.00 | 47 | 1011.8 |
| 20260904220610 | 77 | 220 | 5.0 | 7.0 | 0.00 | 0.00 | 0.00 | 47 | 1011.7 |
| 20260904220116 | 76 | 244 | 4.0 | 7.0 | 0.00 | 0.00 | 0.00 | 47 | 1012.0 |
| 20260904215611 | 76 | 218 | 2.0 | 6.0 | 0.00 | 0.00 | 0.00 | 48 | 1011.7 |
| 20260904214611 | 75 | 242 | 3.0 | 5.0 | 0.00 | 0.00 | 0.00 | 49 | 1011.9 |
| 20260904214110 | 75 | 237 | 4.0 | 5.0 | 0.00 | 0.00 | 0.00 | 49 | 1012.0 |
| 20260904213111 | 74 | 232 | 1.0 | 5.0 | 0.00 | 0.00 | 0.00 | 50 | 1012.0 |
| 20260904212610 | 74 | 224 | 1.0 | 5.0 | 0.00 | 0.00 | 0.00 | 51 | 1011.9 |
| 20260904212110 | 73 | 199 | 2.0 | 4.0 | 0.00 | 0.00 | 0.00 | 51 | 1011.9 |
| 20260904211610 | 74 | 227 | 1.0 | 5.0 | 0.00 | 0.00 | 0.00 | 50 | 1012.2 |
| 20260904211110 | 74 | 225 | 2.0 | 5.0 | 0.00 | 0.00 | 0.00 | 50 | 1012.3 |
| 20260904210610 | 74 | 229 | 1.0 | 4.0 | 0.00 | 0.00 | 0.00 | 50 | 1012.2 |
| 20260904210110 | 74 | 224 | 3.0 | 4.0 | 0.00 | 0.00 | 0.00 | 50 | 1012.1 |
| 20260904205610 | 74 | 247 | 1.0 | 3.0 | 0.00 | 0.00 | 0.00 | 50 | 1012.2 |
| 20260904204611 | 74 | 198 | 1.0 | 4.0 | 0.00 | 0.00 | 0.00 | 49 | 1012.1 |
| 20260904204110 | 74 | 220 | 2.0 | 4.0 | 0.00 | 0.00 | 0.00 | 49 | 1012.1 |